Weather History for Hermiston, OR

Change the Weather History Date:

Wednesday, February 13, 2013

  Actual Average Record
Temperature  
Mean Temperature 47 °F -  
Max Temperature 55 °F 50 °F 69 °F (1977)
Min Temperature 37 °F 31 °F -22 °F (1933)
Degree Days  
Heating Degree Days 18    
Moisture  
Dew Point 35 °F    
Average Humidity 59    
Maximum Humidity 79    
Minimum Humidity 42    
Precipitation  
Precipitation 0.00 in - - ()
Sea Level Pressure  
Sea Level Pressure 30.31 in    
Wind  
Wind Speed 15 mph (WSW)    
Max Wind Speed 25 mph    
Max Gust Speed 31 mph    
Visibility 10 miles    
Events      
Averages and records for this station are not official NWS values.
T = Trace of Precipitation, MM = Missing Value Source: NWS Daily Summary

Daily Weather History Graph

Daily Weather History Graph

Search for Another Location

Airport:

Trip Planner

Search our weather history database for the weather conditions in past years. The results will help you decide how hot, cold, wet, or windy it might be!

Date:

Astronomy

Feb. 13, 2013 Rise Set
Actual Time 7:01 AM PST 5:21 PM PST
Civil Twilight 6:31 AM PST 5:52 PM PST
Nautical Twilight 5:56 AM PST 6:26 PM PST
Astronomical Twilight 5:21 AM PST 7:01 PM PST
Moon 8:19 AM PST (2/13) 9:45 PM PST (2/13)
Length of Visible Light 11h 20m
Length of Day
10h 19m
Waxing Crescent, 14% of the Moon is Illuminated
Feb 13
Waxing Crescent
Feb 17
First Quarter
Feb 25
Full
Mar 4
Last Quarter
Mar 11
New

Hourly Weather History & Observations

Time (PST) Temp. Windchill Dew Point Humidity Pressure Visibility Wind Dir Wind Speed Gust Speed Precip Events Conditions
12:53 AM 48.0 °F - 36.0 °F 63% 30.28 in 10.0 mi WSW 13.8 mph - N/A   Clear
1:53 AM 48.0 °F - 35.1 °F 61% 30.29 in 10.0 mi SW 13.8 mph - N/A   Clear
2:53 AM 46.0 °F 41.4 °F 35.1 °F 66% 30.28 in 10.0 mi SW 9.2 mph - N/A   Clear
3:53 AM 46.9 °F - 36.0 °F 66% 30.27 in 10.0 mi SW 15.0 mph - N/A   Clear
4:53 AM 48.0 °F - 36.0 °F 63% 30.28 in 10.0 mi SW 13.8 mph - N/A   Clear
5:53 AM 48.0 °F - 36.0 °F 63% 30.28 in 10.0 mi WSW 15.0 mph - N/A   Clear
6:53 AM 48.0 °F - 36.0 °F 63% 30.27 in 10.0 mi SW 13.8 mph - N/A   Clear
7:53 AM 50.0 °F - 36.0 °F 59% 30.30 in 10.0 mi WSW 16.1 mph 24.2 mph N/A   Clear
8:53 AM 50.0 °F - 37.0 °F 61% 30.30 in 10.0 mi WSW 18.4 mph 26.5 mph N/A   Clear
9:53 AM 51.1 °F - 37.0 °F 59% 30.32 in 10.0 mi WSW 19.6 mph 26.5 mph N/A   Clear
10:53 AM 51.1 °F - 37.0 °F 59% 30.31 in 10.0 mi WSW 18.4 mph 28.8 mph N/A   Partly Cloudy
11:53 AM 53.1 °F - 37.0 °F 55% 30.31 in 10.0 mi WSW 17.3 mph 27.6 mph N/A   Scattered Clouds
12:53 PM 53.1 °F - 37.0 °F 55% 30.30 in 10.0 mi WSW 19.6 mph 29.9 mph N/A   Mostly Cloudy
1:53 PM 54.0 °F - 36.0 °F 51% 30.29 in 10.0 mi WSW 25.3 mph 31.1 mph N/A   Overcast
2:53 PM 55.0 °F - 34.0 °F 45% 30.29 in 10.0 mi WSW 20.7 mph 27.6 mph N/A   Overcast
3:53 PM 55.0 °F - 32.0 °F 42% 30.30 in 10.0 mi WSW 15.0 mph 27.6 mph N/A   Overcast
4:53 PM 53.1 °F - 33.1 °F 47% 30.30 in 10.0 mi WSW 12.7 mph 23.0 mph N/A   Overcast
5:53 PM 51.1 °F - 32.0 °F 48% 30.30 in 10.0 mi WSW 17.3 mph - N/A   Overcast
6:53 PM 48.0 °F - 32.0 °F 54% 30.33 in 10.0 mi WSW 15.0 mph - N/A   Partly Cloudy
7:53 PM 46.9 °F - 32.0 °F 56% 30.35 in 10.0 mi WSW 12.7 mph - N/A   Overcast
8:53 PM 43.0 °F 39.5 °F 32.0 °F 65% 30.37 in 10.0 mi SW 5.8 mph - N/A   Clear
9:53 PM 42.1 °F 35.7 °F 32.0 °F 67% 30.39 in 10.0 mi SW 11.5 mph - N/A   Clear
10:53 PM 39.9 °F 33.9 °F 33.1 °F 77% 30.41 in 10.0 mi SSW 9.2 mph - N/A   Clear
11:53 PM 37.9 °F 31.5 °F 32.0 °F 79% 30.43 in 10.0 mi SSW 9.2 mph - N/A   Clear